Погода в Насадке

Россия / Пермский край     57°52′21″N   56°47′25″E
темп.,
°C
ветер,
м/с
пор.,
м/с
влажн.,
%
обл.,
%
осадки,
мм/ч
давл.,
гПа
погр.,
м
9 марта, вт
вт923:00−9з489499 1.4 998352
02:00−12юз229699 0.1 100028
05:00−12юз249699 0.1 1001109
08:00−14з129793 0.1 100221
11:00−10зсз249287 0.1 1004339
14:00−8зсз2485100 0.1 1007748
17:00−8зсз2485100 0.1 1008635
20:00−13с2296100 0.1 101034
10 марта, ср
ср1023:00−17ссв2297100 0.1 101124
02:00−19с2597100 0.0 1011115
05:00−22с379699 0.0 1011163
08:00−24с399594 0.0 1010232
11:00−21с599296 0.0 1010291
14:00−16с51186100 0.0 1009446
17:00−16с61287100 0.0 1009535
20:00−19с51390100 0.0 1011519
11 марта, чт
чт1123:00−22ссз51193100 0.0 1013403
02:00−24ссз4109486 0.0 1014301
05:00−27сз259783 0.0 101598
08:00−28сз25988 0.0 101598
11:00−21зсз369649 0.0 1015267
14:00−16зсз4791100 0.0 1014418
17:00−13з4990100 0.1 1014651
20:00−11з51392100 0.1 1013650
12 марта, пт
пт1223:00−10сз51288100 0.4 1014879
02:00−12сз51192100 0.1 1015684
05:00−14зсз51092100 0.1 1016524
08:00−15зсз41193100 0.0 1018494
11:00−12з4989100 0.1 1019609
14:00−9з598298 0.0 1019760
17:00−7з5107983 0.0 1018908
20:00−10з5129088 0.0 1019720
13 марта, сб
сб1323:00−10з5129194 0.1 1020658
02:00−10з41191100 0.1 1021600
05:00−11з41093100 0.1 1022425
08:00−11з41093100 0.0 1024442
11:00−9з4889100 0.1 1025490
14:00−6з4883100 0.0 1026539
17:00−6з4882100 0.0 1026600
20:00−10зюз398999 0.0 1027253